Theta_e
310 309 311 310 309 307 303 297 287 303 306 296 294 291 293 295 297 299 300 299 301 300 300 299 299 299 304 308 307 303 306 304 300 302 306 307 307 305 306 302 301 302 302 303
309 309 310 309 308 307 302 293 294 303 302 291 294 297 297 299 299 298 298 297 300 301 298 295 298 301 306 308 307 308 305 301 297 299 303 305 303 305 306 306 306 305 299 302
309 309 310 309 308 307 303 295 289 298 298 296 293 293 294 296 302 301 303 301 301 301 300 302 300 301 306 309 308 319 311 305 303 298 302 305 301 302 304 304 301 302 302 306
309 309 310 309 308 307 304 296 293 296 293 295 295 294 293 293 294 301 302 302 302 301 298 300 300 303 304 306 312 313 311 304 304 305 307 305 304 302 303 302 305 302 305 306
309 309 310 309 308 306 299 293 293 294 293 295 294 293 293 294 296 297 298 299 302 303 300 302 300 303 304 305 311 311 307 303 303 301 304 305 302 304 304 304 304 305 306 308
309 309 309 310 308 304 298 298 299 294 291 292 292 293 293 294 296 299 301 299 298 298 301 304 306 308 308 310 310 312 311 304 302 300 304 302 299 303 304 305 307 307 304 311
308 308 309 309 308 306 303 298 297 292 287 290 292 294 295 294 295 294 297 299 297 301 306 307 309 306 307 308 310 312 309 306 303 301 300 292 303 309 308 306 308 310 310 313
308 308 308 308 308 307 304 301 297 292 286 291 291 293 294 296 297 294 295 299 302 305 301 301 302 303 305 307 309 311 313 307 303 299 300 303 305 310 305 304 306 312 311 315
308 308 308 308 308 308 306 302 301 295 287 287 292 292 294 291 292 294 295 301 304 306 305 302 298 296 302 302 306 312 310 311 305 302 295 295 307 313 317 315 303 317 318 319
308 308 308 308 308 308 306 304 302 298 289 293 294 290 291 297 295 292 294 296 298 306 303 299 298 298 305 301 303 304 306 309 303 304 300 304 311 314 317 304 308 317 319 320
307 307 307 307 307 307 305 302 303 300 293 294 296 296 293 295 295 290 294 294 299 302 301 302 300 300 304 306 309 307 306 304 304 305 301 300 315 314 310 315 317 318 320 320
307 306 306 306 306 306 305 300 303 304 296 294 300 300 300 300 300 296 296 294 295 299 297 301 301 304 305 307 302 312 304 310 305 308 306 315 317 315 318 320 320 321 322 322
306 306 306 306 306 306 306 301 300 299 294 295 295 294 300 303 303 303 293 296 301 302 302 301 301 301 308 306 307 308 312 315 309 310 313 314 315 317 318 318 317 318 320 321
305 306 305 305 306 306 306 302 303 300 296 288 292 302 299 305 304 302 302 301 301 303 301 300 300 300 306 308 309 310 310 313 310 310 312 315 316 315 315 315 316 316 317 318
304 305 305 305 306 306 307 305 303 303 294 288 290 297 301 303 302 301 302 301 299 297 298 299 298 302 304 308 312 304 305 308 309 307 315 315 315 315 315 313 313 315 315 316
304 305 304 305 305 304 301 294 300 304 302 292 288 298 299 302 301 301 300 300 299 298 299 299 301 305 307 307 303 304 308 313 312 311 313 310 311 311 312 311 311 312 312 313
305 305 305 305 306 304 297 293 299 303 303 294 290 292 301 303 301 300 299 301 301 301 299 296 299 304 308 304 298 303 308 311 312 313 312 308 309 308 311 312 311 311 312 313
304 304 305 306 307 305 299 302 305 304 297 296 289 291 297 302 299 298 302 299 301 299 299 302 305 308 307 298 302 305 309 309 308 309 311 311 312 311 311 312 312 311 310 312
304 305 305 304 301 297 300 307 309 304 297 291 293 291 293 303 299 300 300 301 296 300 303 305 306 303 298 301 303 303 305 305 306 308 308 308 308 309 310 311 311 311 311 313
304 302 298 296 301 307 307 302 297 295 296 295 291 296 293 298 300 299 299 300 297 300 304 309 302 298 305 306 307 308 308 307 307 307 306 308 308 309 311 311 312 313 313 314
302 297 297 303 305 301 297 293 292 294 292 295 296 297 295 302 297 298 300 297 298 297 301 302 299 297 303 308 309 310 311 312 311 312 312 313 313 311 311 312 315 316 316 316
301 301 303 302 298 295 291 291 293 293 290 298 296 298 298 299 302 299 301 297 299 293 304 301 295 301 307 308 309 310 311 314 313 313 313 313 313 314 314 314 314 316 317 317
304 299 294 293 293 288 288 288 292 293 297 299 299 296 299 302 301 300 300 296 295 304 299 295 298 305 308 309 310 310 312 312 312 312 313 313 313 315 315 315 316 318 317 316
296 292 287 288 288 291 292 293 295 299 300 299 298 297 299 301 299 300 295 298 301 294 291 293 301 305 307 310 311 309 309 310 310 310 311 311 312 313 315 315 316 317 317 318
294 292 285 288 294 297 298 300 299 301 302 300 300 300 300 298 298 299 298 295 292 292 291 298 304 306 309 309 310 310 310 310 309 310 310 310 311 311 313 315 316 317 319 319
294 294 292 295 294 295 297 297 297 301 300 302 301 297 295 294 297 295 294 292 289 294 300 303 306 306 308 309 310 311 311 311 311 311 311 311 311 311 311 314 316 317 318 318
295 295 298 297 296 295 297 298 298 300 300 297 299 294 291 298 295 294 297 292 296 300 303 306 307 307 308 310 311 311 311 312 312 312 313 313 312 312 312 312 314 316 316 316
Wind_Speed
16 18 17 16 14 17 7 5 4 4 2 3 3 5 5 3 6 12 10 5 9 10 8 8 5 7 7 4 11 13 13 10 13 18 3 10 20 19 18 12 12 5 10 13
17 17 15 13 11 11 6 6 6 1 3 5 5 5 5 6 8 8 10 15 13 11 10 7 11 12 11 10 2 8 10 6 8 9 12 14 9 18 20 17 11 17 15 11
17 16 14 13 10 9 4 4 5 2 3 1 4 4 6 5 5 9 5 7 7 7 8 9 5 6 6 7 11 8 9 8 10 15 19 16 16 15 16 20 16 14 15 17
16 16 14 10 7 8 2 3 3 2 4 2 8 3 5 10 7 2 4 7 13 11 11 15 16 14 17 16 10 4 9 10 17 24 23 24 24 22 22 18 22 20 18 20
17 18 15 11 6 1 2 4 3 4 6 10 8 4 4 7 5 3 7 8 11 11 11 14 10 17 16 12 3 4 5 3 3 19 22 22 27 26 24 25 26 20 22 13
19 17 16 13 6 3 2 1 3 2 6 5 5 4 3 3 10 7 12 10 10 11 10 7 11 13 14 9 4 5 4 0 2 9 14 17 21 25 24 19 21 21 21 15
19 18 17 14 7 7 2 2 1 4 6 6 7 10 14 16 14 12 13 15 8 3 12 17 16 14 17 15 13 7 5 3 3 9 3 11 17 21 26 25 21 19 17 13
19 16 15 13 10 8 3 1 2 3 6 6 12 14 10 14 12 15 17 15 11 11 8 6 9 8 8 14 12 12 9 5 1 4 8 10 4 6 12 20 24 17 19 17
18 17 15 15 12 10 4 3 2 2 4 6 8 5 8 9 9 9 5 8 10 3 4 5 7 11 10 9 12 9 14 10 6 2 6 6 8 12 9 4 15 14 13 12
16 16 15 13 11 11 5 3 6 3 5 11 16 8 9 6 5 6 7 9 5 3 2 5 7 11 4 10 15 12 7 3 5 3 7 2 12 19 6 11 4 5 8 9
14 13 12 12 11 14 4 4 7 4 4 14 18 20 17 12 8 5 9 9 3 4 2 3 2 3 3 5 7 12 9 8 5 2 6 6 21 10 6 8 3 7 13 21
12 12 9 8 7 11 5 3 3 5 6 8 15 18 20 21 19 7 4 7 8 4 3 2 4 3 2 3 8 1 8 6 9 6 4 8 10 6 7 0 11 13 16 19
8 9 8 7 6 10 8 3 3 2 4 11 13 17 19 20 22 17 8 6 6 2 3 3 3 5 2 1 3 5 3 3 7 6 5 5 8 7 8 9 13 12 13 14
6 9 5 4 8 12 7 4 4 2 4 6 6 3 9 5 9 20 23 8 5 2 3 3 2 4 1 1 2 3 4 1 11 5 13 4 8 3 4 9 11 15 15 15
6 7 6 5 7 7 2 4 5 6 3 5 9 18 5 7 12 16 19 18 11 3 4 2 2 4 4 1 1 5 8 4 4 7 7 1 4 5 4 12 10 11 16 16
5 8 3 6 8 2 2 3 1 6 5 4 5 5 6 6 5 11 13 10 7 3 4 2 3 5 4 3 4 8 7 4 8 1 12 15 11 12 10 11 12 14 15 13
5 6 3 7 7 1 3 2 0 4 4 3 5 5 4 4 5 5 5 9 4 4 2 5 3 2 3 4 5 14 11 7 9 7 11 16 11 7 9 10 9 16 14 13
5 6 7 9 8 3 4 2 11 5 2 3 4 6 5 2 3 3 4 6 4 3 2 2 3 4 4 5 9 10 6 12 16 13 15 11 8 11 13 9 8 13 11 9
8 10 9 1 1 1 1 5 7 4 2 4 2 4 4 3 1 2 3 3 3 0 1 3 3 4 6 5 8 10 11 8 11 13 14 13 14 11 12 12 12 13 11 9
9 2 2 1 1 8 2 4 3 4 3 3 4 3 5 4 2 2 3 2 4 4 2 3 3 4 4 7 5 7 9 8 7 10 8 6 7 8 7 10 10 8 6 7
3 4 2 4 8 2 1 1 3 2 3 3 4 4 5 1 2 2 2 2 2 3 4 1 4 4 1 5 8 7 6 9 7 6 6 6 7 7 7 8 8 8 8 8
4 4 4 3 3 1 3 2 1 3 2 3 3 3 4 3 2 2 2 2 1 4 1 4 4 4 6 6 6 6 5 7 9 8 8 9 9 7 8 8 9 9 9 10
0 1 2 3 2 3 4 6 3 3 4 4 6 8 4 3 1 0 3 4 4 1 5 4 3 5 5 6 4 8 8 8 8 9 8 10 11 11 10 9 9 9 9 9
2 4 4 4 3 4 2 5 5 3 3 6 6 4 3 1 1 2 4 4 1 5 3 3 3 5 4 5 5 6 7 7 9 10 11 12 11 9 8 8 8 9 9 7
4 4 5 4 5 4 6 5 4 3 5 3 2 2 1 3 4 5 3 5 5 5 2 2 4 5 4 5 6 6 6 7 9 9 10 10 9 9 8 8 7 7 7 8
2 2 4 7 5 8 8 11 9 7 7 2 1 3 4 6 3 4 6 4 4 2 3 2 3 3 3 5 5 8 5 5 6 6 6 6 7 7 5 5 6 7 7 7
3 3 3 4 3 5 6 5 7 8 5 4 3 5 3 3 4 4 5 4 3 4 3 4 5 5 5 5 4 5 7 7 7 6 5 4 5 5 3 3 5 6 5 5
Wind_Direction
313 315 314 322 333 335 346 333 293 83 185 229 229 230 204 231 235 222 233 234 225 225 231 251 252 240 249 207 147 172 204 210 228 227 178 237 230 217 211 220 195 229 255 223
311 313 316 319 327 348 328 310 281 325 214 248 231 284 276 264 240 219 195 219 219 216 229 245 233 235 244 226 234 180 166 197 201 228 236 218 227 228 225 230 246 213 228 221
302 306 308 307 319 332 321 297 305 254 217 273 293 333 279 261 265 251 228 223 194 195 217 220 248 219 249 232 228 226 176 192 221 231 233 229 224 225 219 220 226 221 227 237
296 298 302 298 308 331 287 232 277 356 306 193 326 280 297 288 289 274 246 207 224 213 230 235 233 247 267 275 273 249 195 213 220 233 239 211 215 224 220 218 233 228 227 220
293 294 296 292 290 24 215 294 323 341 290 294 285 242 237 261 292 291 264 232 230 240 238 247 267 226 233 253 188 220 154 217 230 246 234 223 220 219 224 221 226 235 245 222
290 288 285 287 296 171 206 220 257 266 273 287 287 263 316 279 340 263 257 303 302 282 271 288 285 272 274 270 292 210 179 184 20 290 260 231 236 226 219 219 229 212 222 224
303 298 283 290 280 196 183 226 179 264 269 259 277 294 299 294 296 281 281 297 286 254 328 310 265 245 243 239 230 233 150 127 142 285 274 216 236 229 227 223 219 214 240 247
302 300 289 285 267 212 202 191 175 246 274 293 290 274 289 298 294 271 270 277 266 320 300 270 243 211 216 218 189 169 133 112 50 263 250 275 251 189 215 210 233 225 229 234
296 297 285 278 264 255 206 191 181 196 277 243 267 302 295 291 296 290 266 315 316 267 237 227 232 200 199 178 137 145 107 119 111 245 251 252 39 341 346 312 229 188 204 219
291 295 287 280 266 257 209 221 183 219 226 256 269 268 284 293 315 291 299 341 325 321 235 231 224 217 220 179 169 166 163 94 78 356 274 256 4 334 295 198 181 164 201 165
293 293 294 290 275 276 215 238 188 223 254 271 267 269 268 275 278 289 331 316 61 302 269 264 260 253 161 178 160 169 158 156 141 116 292 244 357 333 293 354 10 126 134 114
287 291 297 320 312 300 277 242 179 212 243 277 304 278 264 257 249 272 257 309 305 288 322 301 294 292 254 180 179 240 175 167 143 132 265 325 348 307 306 351 73 80 88 99
282 291 302 323 274 282 238 199 165 188 274 274 250 254 261 241 235 227 243 258 214 208 329 277 281 278 313 183 106 143 74 145 107 125 166 7 341 20 32 63 70 71 76 82
289 296 314 290 256 257 214 211 180 183 271 275 291 275 265 227 230 205 211 234 65 89 297 259 265 274 322 276 26 88 8 66 143 110 141 189 242 172 79 69 74 80 72 66
299 314 297 333 344 285 258 223 204 204 246 300 295 296 280 271 212 206 204 218 246 319 334 320 248 279 279 131 211 51 348 355 154 159 163 112 111 128 107 86 68 67 81 69
302 317 18 316 308 24 276 274 148 213 198 266 291 319 283 325 170 183 186 187 196 215 185 251 260 251 276 40 66 16 344 258 238 172 118 111 89 79 92 97 97 78 71 78
314 315 338 292 307 172 251 342 2 167 173 251 288 289 269 300 145 151 146 177 210 224 208 218 267 19 41 49 36 334 352 63 78 84 115 76 75 90 85 80 71 83 67 50
320 310 299 290 291 259 264 250 205 178 274 266 282 278 279 182 177 162 165 146 197 205 305 230 18 36 46 54 358 349 46 78 64 62 71 82 95 70 62 66 64 65 65 54
320 313 305 280 210 225 198 294 195 168 285 304 279 294 325 356 135 156 162 203 109 305 258 55 62 27 49 1 345 12 23 60 74 66 63 46 39 34 47 38 48 52 42 31
321 318 307 321 165 304 297 218 176 177 204 235 257 283 277 307 331 140 150 204 129 152 71 127 89 65 39 20 23 12 30 30 4 65 70 71 74 64 61 50 43 47 37 32
349 347 309 324 319 271 260 253 218 178 243 212 238 248 286 179 295 25 5 131 156 109 113 130 91 95 358 17 38 23 58 87 74 90 102 93 80 69 65 62 55 51 50 43
295 300 293 293 311 296 279 261 236 235 306 251 261 306 234 288 306 313 23 46 47 73 41 78 83 81 67 44 19 51 69 77 80 77 76 75 66 61 68 55 42 38 38 36
215 242 296 332 343 19 6 355 41 11 352 327 336 331 351 309 15 291 13 58 53 230 38 55 72 78 67 89 85 61 63 82 92 88 85 76 69 58 46 42 35 35 45 41
8 334 15 9 23 13 320 318 311 297 222 279 293 236 221 274 19 306 33 19 285 70 57 75 79 64 45 61 61 58 49 49 53 51 51 48 46 45 46 42 32 29 36 30
18 17 20 7 312 295 287 289 275 284 288 298 224 223 228 8 46 20 3 40 59 39 45 38 39 22 18 40 52 54 42 32 35 29 33 32 29 30 32 26 22 23 26 29
39 41 345 342 352 3 9 354 356 358 337 284 23 43 35 23 14 46 26 58 18 65 45 44 347 15 10 16 30 29 20 23 21 15 14 15 18 12 2 3 23 27 20 16
25 1 318 324 263 291 313 324 326 327 311 17 9 51 12 288 51 45 23 78 343 348 30 50 26 350 348 0 11 10 16 15 13 6 12 8 352 350 3 24 20 9 9 3